Miscellaneous Local Product
Issued by NWS Hastings, NE

Home | Current Version | Previous Version | Graphics & Text | Print | Product List | Glossary On
Versions: 1 2 3 4 5 6 7 8 9 10 11 12 13 14 15 16 17 18 19 20 21 22 23 24 25 26 27 28 29 30 31 32 33 34 35 36 37 38 39 40 41 42 43 44 45 46 47 48 49 50
000
AXUS43 KGID 241902
MISGRI

GID CWA HOURLY WEATHER ROUNDUP
NATIONAL WEATHER SERVICE HASTINGS NE
200 PM CDT MON APR 24 2017

NOTE: "FAIR" INDICATES FEW OR NO CLOUDS BELOW 12,000 FEET WITH NO
SIGNIFICANT WEATHER AND/OR OBSTRUCTIONS TO VISIBILITY.

...SOUTH CENTRAL NEBRASKA...

CITY           SKY/WX    TMP DP  RH WIND       PRES   REMARKS
GRAND ISLAND   CLOUDY    68  40  35 SW8       29.54F
HASTINGS       CLOUDY    70  40  33 S12G17    29.53F
KEARNEY        CLOUDY    64  37  36 NW6       29.54R
ORD            MOSUNNY   64  38  38 VRB3      29.52F
YORK           MOSUNNY   73  39  29 SW17G29   29.55S
AURORA         PTSUNNY   72  39  30 SW15      29.53F
LEXINGTON      SUNNY     67  40  37 SE3       29.53F
HOLDREGE       SUNNY     66  38  34 N7        29.54F
HEBRON         CLOUDY    71  40  31 SW22G35   29.56S

...NEBRASKA PANHANDLE...

CITY           SKY/WX    TMP DP  RH WIND       PRES   REMARKS
CHADRON        SUNNY     63  37  38 NW16      29.59F
ALLIANCE       SUNNY     62  33  33 NW10      29.59F
SCOTTSBLUFF    PTSUNNY   66  34  30 W14       29.62F
SIDNEY         MOSUNNY   64  37  36 N16G25    29.64F

...WESTERN AND NORTH CENTRAL NEBRASKA...

CITY           SKY/WX    TMP DP  RH WIND       PRES   REMARKS
VALENTINE      MOSUNNY   58  40  51 N18G29    29.58S
AINSWORTH      CLOUDY    54  43  66 N18       29.58F
ONEILL         SUNNY     66  40  38 SW8       29.54F
BROKEN BOW     SUNNY     70  41  34 NW20G26   29.53R
IMPERIAL       SUNNY     69  37  30 N20       29.59S
NORTH PLATTE   SUNNY     69  45  41 N15G22    29.56R
MCCOOK         SUNNY     77  41  27 NW8G22    29.53F

...EASTERN NEBRASKA...

CITY           SKY/WX    TMP DP  RH WIND       PRES   REMARKS
NORFOLK        CLOUDY    66  38  35 SW18      29.54S
SO SIOUX CITY  PTSUNNY   71  39  31 S25G35    29.56F
TEKAMAH        MOSUNNY   70  39  32 S25G35    29.58F
COLUMBUS       CLOUDY    68  41  37 S18G24    29.56
ALBION         CLOUDY    64  38  39 S12       29.55S
OMAHA EPPLEY   PTSUNNY   72  35  25 S26G36    29.59F
OFFUTT AFB     PTSUNNY   72  38  28 S20G31    29.59F
MILLARD        CLOUDY    74  41  30 S16G31    29.58F
LINCOLN        MOSUNNY   75  40  28 S26G37    29.56F
NEBRASKA CITY  SUNNY     71  27  19 S29G36    29.62F
BEATRICE       CLOUDY    72  43  34 S30       29.57F
FALLS CITY     SUNNY     70  39  32 S31G37    29.62F

...NORTHERN KANSAS...

CITY           SKY/WX    TMP DP  RH WIND       PRES   REMARKS
GOODLAND       SUNNY     71  41  33 N14       29.62S
HILL CITY      SUNNY     77  42  28 N14G22    29.54F
NORTON         CLEAR     72  36  26 NW12      29.53F
PHILLIPSBURG   SUNNY     73  43  33 W5        29.51F
SMITH CENTER   SUNNY     73  41  31 S23       29.51F
HAYS           SUNNY     76  47  35 W16       29.52F
RUSSELL        SUNNY     76  43  30 SW25G32   29.52F
CONCORDIA      CLOUDY    70  46  42 S28G36    29.56S
SALINA         MOSUNNY   74  47  38 S25G43    29.57F
TOPEKA         SUNNY     73  42  32 S22G41    29.65F



USA.gov is the U.S. government's official web portal to all federal, state and local government web resources and services.